sat.trackr.live / text

‹ back to catalog

STARLINK-2686

NORAD 48464 · 2021-040AN

PAYLOAD ACTIVE UNKNOWN

§ Identity

Operator
Country
US
Launch date
2021-05-09
Launch site
AFETR
Launch vehicle
Mass (kg)
RCS (m²)

Purposes: comms

External: N2YO · Heavens-Above · Gunter

§ Orbital elements

Epoch: 2026-09-08T20:20:16.106496Z

Period
94.01 min
Inclination
53.1601°
Eccentricity
0.0000871
Mean motion
15.31691057 rev/d
Perigee alt
470.2 km
Apogee alt
471.4 km
Semi-major
6,848.9 km
B*
-2.7337e-6
RAAN
58.8243°
Arg perigee
102.7331°
Mean anomaly
257.3768°
Rev number
29,456

§ Raw data

STARLINK-26861 48464U 21040AN  26251.84740864 -.00000450  00000+0 -27337-5 0  99972 48464  53.1601  58.8243 0000871 102.7331 257.3768 15.31691057294569

JSON: /api/v1/satellites/48464 · /tle

For live sub-satellite position, see the globe view (requires WebGL).

§ Visibility from observer

Set your observer location to see the next 7 days of passes ≥ 10°. The values pass through the URL so the page stays shareable.

No JS? Fill the form by hand. The geolocation button needs JavaScript.